KUIPER-00093

导读 | 豆包AI

KUIPER-00093是美国亚马逊柯伊伯(Kuiper)卫星互联网星座的一员,于2025年7月16日,在美国佛罗里达州空军东部试验场发射升空。该卫星运行在近地轨道,平均轨道高度约636公里,倾角51.9度,轨道周期约97.3分钟,目前处于正常运行状态。它配备相控阵天线,将为全球提供高速卫星互联网接入服务,是亚马逊部署近万颗卫星星座组网计划的重要组成部分。

Basic Information
目录编号:
64838
目录名称:
KUIPER-00093
国际标识:
2025-151Y
轨道中心:
EARTH
卫星名称:
KUIPER-00093
卫星全名:
KUIPER-00093
卫星状态:
在轨 (已飞行287 天)
发射日期:
2025-07-16 UTC
国别 :
美国 (US)
星等 :
--
Orbit Information
数据来源 国际轨道数据 AOE轨道数据
星历时间 2026-04-28T11:58:30+0800
20小时前
查看轨道信息
2026-04-22T22:00:00+0800
6天前
查看轨道信息
半长轴 7007.827km 7007.503km
偏心率 0.0000445 0.0001001
轨道倾角 51.900° 51.899°
近地点辐角 74.943° 59.945°
升交点赤经 74.286° 98.977°
平近点角 285.158° 60.222°
近地点 629.378km 628.664km
远地点 630.002km 630.068km
周期 97.305分钟 97.298分钟
每日圈数 14.798844 14.79987
Detailed Information
使用方式:
暂无
2D Orbit Map
3D Orbit Map
Orbit Altitude Analysis Chart
Orbit Inclination Analysis Chart
Orbit Comprehensive Analysis Chart
View Comprehensive Chart